Mena, AR

7:42 PM CST on February 23, 2017 (GMT -0600)
Mena

Weather History for KMEZ - January, 2013

Change the Weather History Date:

Tuesday, January 1, 2013

  Actual Average (KFSM) Record (KFSM)
Temperature  
Mean Temperature 38 °F -  
Max Temperature 42 °F 49 °F 76 °F (1910)
Min Temperature 35 °F 29 °F 2 °F (1928)
Degree Days  
Heating Degree Days 26    
Moisture  
Dew Point 39 °F    
Average Humidity 97    
Maximum Humidity 100    
Minimum Humidity 87    
Precipitation  
Precipitation 0.03 in - - ()
Sea Level Pressure  
Sea Level Pressure 30.12 in    
Wind  
Wind Speed 3 mph (NNW)    
Max Wind Speed 9 mph    
Max Gust Speed -    
Visibility 6 miles    
Events Rain    
Averages and records for this station are not official NWS values.
T = Trace of Precipitation, MM = Missing Value Source: NWS Daily Summary

Daily Weather History Graph

Daily Weather History Graph

Search for Another Location

Airport or City:

Trip Planner

Search our weather history database for the weather conditions in past years. The results will help you decide how hot, cold, wet, or windy it might be!

Date:

Astronomy

Jan. 01, 2013 Rise Set
Actual Time 7:23 AM CST 5:17 PM CST
Civil Twilight 6:55 AM CST 5:45 PM CST
Nautical Twilight 6:24 AM CST 6:16 PM CST
Astronomical Twilight 5:53 AM CST 6:47 PM CST
Moon 9:37 PM CST (1/1) 9:47 AM CST (1/1)
Length of Visible Light 10h 49m
Length of Day
9h 53m
Waning Gibbous, 83% of the Moon is Illuminated
Jan 1
Waning Gibbous
Jan 4
Last Quarter
Jan 11
New
Jan 18
First Quarter
Jan 26
Full

Hourly Weather History & Observations

Time (CST) Temp. Windchill Dew Point Humidity Pressure Visibility Wind Dir Wind Speed Gust Speed Precip Events Conditions
12:15 AM 39.2 °F - 39.2 °F 100% 30.03 in 0.8 mi Calm Calm - N/A   Overcast
12:35 AM 39.2 °F - 39.2 °F 100% 30.03 in 0.8 mi Calm Calm - N/A   Overcast
12:55 AM 39.2 °F - 39.2 °F 100% 30.03 in 1.2 mi Calm Calm - N/A   Overcast
1:15 AM 41.0 °F - 41.0 °F 100% 30.03 in 2.5 mi Calm Calm - N/A   Overcast
1:35 AM 41.0 °F - 41.0 °F 100% 30.03 in 4.0 mi Calm Calm - N/A   Overcast
1:55 AM 41.0 °F 38.0 °F 41.0 °F 100% 30.04 in 10.0 mi North 4.6 mph - N/A   Overcast
2:15 AM 41.0 °F 36.4 °F 41.0 °F 100% 30.03 in 10.0 mi North 6.9 mph - 0.02 in   Overcast
2:35 AM 41.0 °F - 41.0 °F 100% 30.03 in 10.0 mi Calm Calm - 0.02 in   Overcast
2:55 AM 41.0 °F - 41.0 °F 100% 30.03 in 7.0 mi Calm Calm - 0.02 in   Overcast
3:15 AM 41.0 °F - 41.0 °F 100% 30.04 in 7.0 mi Calm Calm - N/A   Overcast
3:35 AM 41.0 °F - 41.0 °F 100% 30.04 in 5.0 mi Calm Calm - N/A   Overcast
3:55 AM 41.0 °F - 41.0 °F 100% 30.05 in 5.0 mi Calm Calm - N/A   Overcast
4:15 AM 41.0 °F 39.0 °F 41.0 °F 100% 30.04 in 7.0 mi ENE 3.5 mph - N/A   Overcast
4:35 AM 41.0 °F 39.0 °F 41.0 °F 100% 30.05 in 5.0 mi NE 3.5 mph - N/A   Overcast
4:55 AM 41.0 °F - 41.0 °F 100% 30.06 in 5.0 mi Calm Calm - N/A   Overcast
5:15 AM 41.0 °F - 41.0 °F 100% 30.05 in 3.0 mi Calm Calm - N/A   Overcast
5:35 AM 41.0 °F - 41.0 °F 100% 30.06 in 4.0 mi Calm Calm - N/A   Overcast
5:55 AM 41.0 °F 39.0 °F 41.0 °F 100% 30.06 in 3.0 mi North 3.5 mph - N/A   Overcast
6:15 AM 41.0 °F 39.0 °F 41.0 °F 100% 30.05 in 2.5 mi NNE 3.5 mph - N/A   Overcast
6:35 AM 41.0 °F 38.0 °F 41.0 °F 100% 30.03 in 3.0 mi NE 4.6 mph - N/A   Overcast
6:55 AM 41.0 °F - 41.0 °F 100% 30.06 in 5.0 mi Calm Calm - N/A   Overcast
7:15 AM 41.0 °F - 41.0 °F 100% 30.07 in 5.0 mi Calm Calm - N/A   Overcast
7:35 AM 41.0 °F - 41.0 °F 100% 30.08 in 5.0 mi Calm Calm - N/A   Overcast
7:55 AM 41.0 °F 36.4 °F 41.0 °F 100% 30.11 in 7.0 mi NNW 6.9 mph - N/A   Overcast
8:15 AM 41.0 °F 37.1 °F 41.0 °F 100% 30.12 in 7.0 mi NW 5.8 mph - N/A   Drizzle
8:35 AM 41.0 °F - 41.0 °F 100% 30.10 in 7.0 mi Calm Calm - N/A   Light Drizzle
8:55 AM 41.0 °F - 41.0 °F 100% 30.12 in 5.0 mi Calm Calm - N/A   Light Drizzle
9:15 AM 41.0 °F 37.1 °F 41.0 °F 100% 30.09 in 5.0 mi East 5.8 mph - N/A   Light Drizzle
9:35 AM 41.0 °F 37.1 °F 41.0 °F 100% 30.10 in 4.0 mi East 5.8 mph - N/A   Overcast
9:55 AM 41.0 °F - 41.0 °F 100% 30.13 in 4.0 mi Calm Calm - N/A Rain Light Rain
10:15 AM 41.0 °F - 41.0 °F 100% 30.14 in 4.0 mi Calm Calm - N/A   Overcast
10:35 AM 42.8 °F 40.1 °F 42.8 °F 100% 30.15 in 7.0 mi North 4.6 mph - N/A   Light Drizzle
10:55 AM 41.0 °F 36.4 °F 41.0 °F 100% 30.16 in 10.0 mi North 6.9 mph - 0.01 in Rain Light Rain
11:15 AM 42.8 °F 40.1 °F 41.0 °F 93% 30.15 in 10.0 mi North 4.6 mph - N/A Rain Light Rain
11:35 AM 41.0 °F 39.0 °F 41.0 °F 100% 30.15 in 7.0 mi North 3.5 mph - N/A   Drizzle
11:55 AM 42.8 °F 39.3 °F 41.0 °F 93% 30.13 in 7.0 mi North 5.8 mph - N/A   Overcast
12:15 PM 42.8 °F - 41.0 °F 93% 30.14 in 10.0 mi Calm Calm - N/A   Overcast
12:35 PM 42.8 °F - 41.0 °F 93% 30.12 in 10.0 mi Calm Calm - N/A Rain Light Rain
12:55 PM 42.8 °F 41.1 °F 42.8 °F 100% 30.14 in 7.0 mi WNW 3.5 mph - N/A   Overcast
1:15 PM 42.8 °F 39.3 °F 41.0 °F 93% 30.13 in 7.0 mi WNW 5.8 mph - N/A   Overcast
1:35 PM 42.8 °F 39.3 °F 41.0 °F 93% 30.13 in 7.0 mi WNW 5.8 mph - N/A   Overcast
1:55 PM 42.8 °F 38.0 °F 41.0 °F 93% 30.13 in 10.0 mi WNW 8.1 mph - N/A   Overcast
2:15 PM 42.8 °F 38.0 °F 41.0 °F 93% 30.12 in 10.0 mi WNW 8.1 mph - N/A   Overcast
2:35 PM 42.8 °F 39.3 °F 41.0 °F 93% 30.12 in 10.0 mi WNW 5.8 mph - N/A   Overcast
2:55 PM 42.8 °F 39.3 °F 41.0 °F 93% 30.13 in 7.0 mi NNW 5.8 mph - N/A   Overcast
3:15 PM 41.0 °F 36.4 °F 41.0 °F 100% 30.14 in 7.0 mi North 6.9 mph - N/A   Overcast
3:35 PM 41.0 °F 37.1 °F 39.2 °F 93% 30.14 in 10.0 mi North 5.8 mph - N/A   Overcast
3:55 PM 41.0 °F 35.8 °F 39.2 °F 93% 30.15 in 10.0 mi NNW 8.1 mph - N/A   Overcast
4:15 PM 41.0 °F 38.0 °F 37.4 °F 87% 30.15 in 10.0 mi NNW 4.6 mph - N/A   Overcast
4:35 PM 41.0 °F 35.8 °F 37.4 °F 87% 30.16 in 10.0 mi NNW 8.1 mph - N/A   Overcast
4:55 PM 39.2 °F 33.0 °F 37.4 °F 93% 30.16 in 10.0 mi NNW 9.2 mph - N/A   Overcast
5:15 PM 37.4 °F 32.1 °F 37.4 °F 100% 30.17 in 7.0 mi NNW 6.9 mph - N/A   Overcast
5:35 PM 37.4 °F 32.8 °F 37.4 °F 100% 30.18 in 7.0 mi NNW 5.8 mph - N/A   Overcast
5:55 PM 37.4 °F 32.1 °F 35.6 °F 93% 30.18 in 5.0 mi NNW 6.9 mph - N/A   Overcast
6:15 PM 37.4 °F 33.8 °F 35.6 °F 93% 30.19 in 5.0 mi North 4.6 mph - N/A   Overcast
6:35 PM 37.4 °F 31.4 °F 35.6 °F 93% 30.19 in 7.0 mi NNW 8.1 mph - N/A   Overcast
6:55 PM 35.6 °F 29.9 °F 35.6 °F 100% 30.19 in 7.0 mi NNW 6.9 mph - N/A   Overcast
7:15 PM 35.6 °F 30.7 °F 35.6 °F 100% 30.20 in 7.0 mi NNW 5.8 mph - N/A   Overcast
7:35 PM 35.6 °F 31.7 °F 35.6 °F 100% 30.20 in 7.0 mi NNW 4.6 mph - N/A   Overcast
7:55 PM 35.6 °F - 35.6 °F 100% 30.21 in 7.0 mi Calm Calm - N/A   Overcast
8:15 PM 35.6 °F 31.7 °F 35.6 °F 100% 30.20 in 7.0 mi North 4.6 mph - N/A   Overcast
8:35 PM 35.6 °F 29.9 °F 35.6 °F 100% 30.21 in 7.0 mi North 6.9 mph - N/A   Overcast
8:55 PM 35.6 °F 28.6 °F 33.8 °F 93% 30.20 in 7.0 mi North 9.2 mph - N/A   Overcast
9:15 PM 35.6 °F - 33.8 °F 93% 30.20 in 7.0 mi Calm Calm - N/A   Overcast
9:35 PM 35.6 °F 30.7 °F 33.8 °F 93% 30.21 in 5.0 mi NW 5.8 mph - N/A   Overcast
9:55 PM 35.6 °F 31.7 °F 33.8 °F 93% 30.21 in 7.0 mi NW 4.6 mph - N/A   Overcast
10:15 PM 35.6 °F 31.7 °F 33.8 °F 93% 30.20 in 7.0 mi NW 4.6 mph - N/A   Overcast
10:35 PM 35.6 °F - 33.8 °F 93% 30.20 in 7.0 mi Calm Calm - N/A   Overcast
10:55 PM 35.6 °F - 33.8 °F 93% 30.19 in 5.0 mi Calm Calm - N/A   Overcast
11:15 PM 35.6 °F 32.8 °F 33.8 °F 93% 30.20 in 7.0 mi NNW 3.5 mph - N/A   Overcast
11:55 PM 35.6 °F 31.7 °F 33.8 °F 93% 30.21 in 7.0 mi WNW 4.6 mph - N/A   Overcast